Location: Cahas Mountain Overlook
(37.0833°N, 80.1000°W)
Time: 04:55:07
(UTC-05:00)

ISS - Visible Passes

Search period start: 01 December 2021 00:00
Search period end: 11 December 2021 00:00
Orbit: 417 x 423 km, 51.6° (Epoch: 01 December)

Date Brightness Start Highest point End Pass type
(mag) Time Alt. Az. Time Alt. Az. Time Alt. Az.
02 Dec -1.4 18:13:14 10° N 18:14:13 11° NNE 18:14:13 11° NNE visible
03 Dec -1.2 19:01:32 10° NNW 19:02:10 14° NNW 19:02:10 14° NNW visible
04 Dec -2.2 18:14:36 10° NNW 18:17:14 20° NNE 18:17:15 20° NNE visible
05 Dec -2.1 19:03:39 10° NW 19:05:32 30° NW 19:05:32 30° NW visible
06 Dec -3.6 18:16:30 10° NW 18:19:49 50° NE 18:21:04 31° E visible
07 Dec -2.8 17:29:26 10° NNW 17:32:30 31° NNE 17:35:33 10° E visible
07 Dec -1.7 19:06:24 10° WNW 19:09:14 25° SW 19:10:03 23° SSW visible
08 Dec -2.7 18:18:50 10° WNW 18:22:06 46° SW 18:25:20 10° SSE visible
09 Dec -3.7 17:31:30 10° NW 17:34:54 87° SW 17:38:16 10° SE visible
10 Dec -0.5 18:22:14 10° W 18:24:06 14° SW 18:25:57 10° SSW visible
